Location: Bacea
(45.9500°N, 22.6667°E)
Time: 19:28:18
(UTC+00:00)

Envisat - Pass Details

Date: 31 January 2022
Orbit: 764 x 765 km, 98.2° (Epoch: 22 May)

Event Time Altitude Azimuth Distance (km) Brightness Sun altitude
Rises 02:51:04 0° 19° (NNE) 3,241 6.6 -31.7°
Reaches altitude 10° 02:53:31 10° 27° (NNE) 2,311 5.8 -31.3°
Maximum altitude 02:58:19 41° 98° (E) 1,101 4.1 -30.5°
Drops below altitude 10° 03:03:05 10° 168° (SSE) 2,296 5.5 -29.6°
Sets 03:05:30 0° 175° (S) 3,217 6.2 -29.2°
